Weather History for KPTB - October, 2012

Change the Weather History Date:

Sunday, October 28, 2012

  Actual Average (KRIC) Record (KRIC)
Temperature  
Mean Temperature 58 °F 56 °F  
Max Temperature 62 °F 68 °F 87 °F (1919)
Min Temperature 55 °F 44 °F 25 °F (1976)
Degree Days  
Heating Degree Days 6 9  
Month to date heating degree days 174  
Since 1 July heating degree days 203  
Cooling Degree Days 0 0  
Month to date cooling degree days 40  
Year to date cooling degree days 1544  
Growing Degree Days 8 (Base 50)    
Moisture  
Dew Point 49 °F    
Average Humidity 67    
Maximum Humidity 94    
Minimum Humidity 55    
Precipitation  
Precipitation 0.01 in 0.10 in 1.82 in (1949)
Month to date precipitation 2.67  
Year to date precipitation 36.79  
Snow  
Snow 0.00 in 0.00 in 0.00 in (2002)
Month to date snowfall 0.0  
Since 1 July snowfall 0.0  
Snow Depth -    
Sea Level Pressure  
Sea Level Pressure 29.63 in    
Wind  
Wind Speed 12 mph (North)    
Max Wind Speed 18 mph    
Max Gust Speed 30 mph    
Visibility 9 miles    
Events Rain    
T = Trace of Precipitation, MM = Missing Value Source: NWS Daily Summary

Daily Weather History Graph

Daily Weather History Graph

Search for Another Location

Airport or City:

Trip Planner

Search our weather history database for the weather conditions in past years. The results will help you decide how hot, cold, wet, or windy it might be!

Date:

Astronomy

Oct. 28, 2012 Rise Set
Actual Time 7:30 AM EDT 6:16 PM EDT
Civil Twilight 7:04 AM EDT 6:42 PM EDT
Nautical Twilight 6:33 AM EDT 7:13 PM EDT
Astronomical Twilight 6:03 AM EDT 7:43 PM EDT
Moon 5:32 PM EDT (10/28) 6:22 AM EDT (10/28)
Length of Visible Light 11h 38m
Length of Day
10h 45m
Waxing Gibbous, 99% of the Moon is Illuminated
Oct 28
Waxing Gibbous
Oct 29
Full
Nov 6
Last Quarter
Nov 13
New
Nov 20
First Quarter

Hourly Weather History & Observations

Time (EDT) Temp. Dew Point Humidity Pressure Visibility Wind Dir Wind Speed Gust Speed Precip Events Conditions
12:15 AM 62.6 °F 53.6 °F 72% 29.76 in 10.0 mi NNE 9.2 mph - N/A   Overcast
12:35 AM 62.6 °F 53.6 °F 72% 29.76 in 10.0 mi North 8.1 mph - N/A   Overcast
12:55 AM 62.6 °F 53.6 °F 72% 29.75 in 10.0 mi NNE 15.0 mph - N/A   Scattered Clouds
1:15 AM 62.6 °F 53.6 °F 72% 29.74 in 10.0 mi NNE 9.2 mph - N/A   Mostly Cloudy
1:35 AM 62.6 °F 53.6 °F 72% 29.73 in 10.0 mi North 13.8 mph 19.6 mph N/A   Mostly Cloudy
1:55 AM 62.6 °F 51.8 °F 68% 29.73 in 10.0 mi NNE 13.8 mph 18.4 mph N/A   Overcast
2:15 AM 62.6 °F 51.8 °F 68% 29.73 in 10.0 mi North 8.1 mph - N/A   Overcast
2:35 AM 62.6 °F 51.8 °F 68% 29.73 in 10.0 mi North 8.1 mph - N/A   Overcast
2:55 AM 62.6 °F 51.8 °F 68% 29.72 in 10.0 mi NNE 12.7 mph 21.9 mph N/A   Overcast
3:15 AM 62.6 °F 51.8 °F 68% 29.71 in 10.0 mi North 12.7 mph - N/A   Overcast
3:35 AM 62.6 °F 51.8 °F 68% 29.70 in 10.0 mi North 13.8 mph 20.7 mph N/A   Overcast
3:55 AM 62.6 °F 50.0 °F 63% 29.70 in 10.0 mi North 10.4 mph - N/A   Light Drizzle
4:15 AM 62.6 °F 48.2 °F 59% 29.68 in 10.0 mi NNE 13.8 mph 20.7 mph N/A   Overcast
4:35 AM 60.8 °F 48.2 °F 63% 29.69 in 10.0 mi North 11.5 mph 19.6 mph N/A   Overcast
4:55 AM 60.8 °F 48.2 °F 63% 29.69 in 10.0 mi North 10.4 mph 16.1 mph N/A   Overcast
5:15 AM 60.8 °F 46.4 °F 59% 29.69 in 10.0 mi North 11.5 mph 19.6 mph N/A   Overcast
5:35 AM 60.8 °F 46.4 °F 59% 29.68 in 10.0 mi North 12.7 mph 20.7 mph N/A   Mostly Cloudy
5:55 AM 60.8 °F 46.4 °F 59% 29.67 in 10.0 mi North 10.4 mph - N/A   Scattered Clouds
6:15 AM 60.8 °F 46.4 °F 59% 29.68 in 10.0 mi North 8.1 mph 19.6 mph N/A   Clear
6:35 AM 60.8 °F 46.4 °F 59% 29.68 in 10.0 mi North 11.5 mph 17.3 mph N/A   Clear
6:55 AM 60.8 °F 46.4 °F 59% 29.67 in 10.0 mi North 12.7 mph 19.6 mph N/A   Clear
7:15 AM 60.8 °F 48.2 °F 63% 29.68 in 10.0 mi North 11.5 mph 17.3 mph N/A   Scattered Clouds
7:35 AM 60.8 °F 48.2 °F 63% 29.68 in 10.0 mi North 10.4 mph 17.3 mph N/A   Overcast
7:55 AM 60.8 °F 48.2 °F 63% 29.68 in 10.0 mi North 11.5 mph 20.7 mph N/A   Overcast
8:15 AM 60.8 °F 50.0 °F 68% 29.68 in 10.0 mi North 9.2 mph - N/A   Overcast
8:35 AM 60.8 °F 50.0 °F 68% 29.68 in 10.0 mi North 12.7 mph 21.9 mph N/A   Mostly Cloudy
8:55 AM 60.8 °F 51.8 °F 72% 29.68 in 10.0 mi North 13.8 mph - N/A   Mostly Cloudy
9:15 AM 60.8 °F 50.0 °F 68% 29.69 in 10.0 mi North 12.7 mph 18.4 mph N/A   Overcast
9:35 AM 60.8 °F 50.0 °F 68% 29.67 in 10.0 mi NNE 17.3 mph 24.2 mph N/A   Scattered Clouds
9:55 AM 60.8 °F 48.2 °F 63% 29.67 in 10.0 mi North 15.0 mph 21.9 mph N/A   Mostly Cloudy
10:15 AM 60.8 °F 46.4 °F 59% 29.66 in 10.0 mi North 15.0 mph 20.7 mph N/A   Mostly Cloudy
10:35 AM 60.8 °F 46.4 °F 59% 29.65 in 10.0 mi NNE 18.4 mph 24.2 mph N/A   Overcast
10:55 AM 60.8 °F 46.4 °F 59% 29.66 in 10.0 mi North 15.0 mph - N/A   Overcast
11:15 AM 60.8 °F 44.6 °F 55% 29.64 in 10.0 mi North 12.7 mph 24.2 mph N/A   Scattered Clouds
11:35 AM 60.8 °F 44.6 °F 55% 29.64 in 10.0 mi North 11.5 mph 24.2 mph N/A   Clear
11:55 AM 60.8 °F 46.4 °F 59% 29.62 in 10.0 mi North 11.5 mph 19.6 mph N/A   Mostly Cloudy
12:15 PM 60.8 °F 44.6 °F 55% 29.62 in 10.0 mi North 10.4 mph 16.1 mph N/A   Overcast
12:35 PM 60.8 °F 44.6 °F 55% 29.61 in 10.0 mi North 13.8 mph 19.6 mph N/A   Mostly Cloudy
12:55 PM 60.8 °F 44.6 °F 55% 29.60 in 10.0 mi North 13.8 mph 20.7 mph N/A   Overcast
1:15 PM 60.8 °F 44.6 °F 55% 29.60 in 10.0 mi North 11.5 mph 24.2 mph N/A   Mostly Cloudy
1:35 PM 60.8 °F 46.4 °F 59% 29.58 in 10.0 mi North 15.0 mph 24.2 mph N/A   Overcast
1:55 PM 60.8 °F 46.4 °F 59% 29.58 in 10.0 mi North 11.5 mph 18.4 mph N/A   Overcast
2:15 PM 60.8 °F 46.4 °F 59% 29.58 in 10.0 mi North 13.8 mph 20.7 mph N/A   Overcast
2:35 PM 60.8 °F 46.4 °F 59% 29.57 in 10.0 mi North 12.7 mph 19.6 mph N/A   Overcast
2:55 PM 60.8 °F 48.2 °F 63% 29.57 in 10.0 mi North 12.7 mph 19.6 mph N/A   Overcast
3:15 PM 60.8 °F 48.2 °F 63% 29.57 in 10.0 mi North 17.3 mph 21.9 mph N/A   Overcast
3:35 PM 60.8 °F 48.2 °F 63% 29.57 in 10.0 mi North 12.7 mph 25.3 mph N/A Rain Light Rain
3:55 PM 60.8 °F 48.2 °F 63% 29.57 in 10.0 mi NNW 18.4 mph 23.0 mph N/A   Overcast
4:15 PM 60.8 °F 48.2 °F 63% 29.57 in 10.0 mi North 18.4 mph 24.2 mph N/A   Overcast
4:35 PM 60.8 °F 48.2 °F 63% 29.57 in 10.0 mi NNW 10.4 mph 20.7 mph N/A   Overcast
4:55 PM 60.8 °F 48.2 °F 63% 29.57 in 10.0 mi North 12.7 mph 19.6 mph N/A   Overcast
5:15 PM 59.0 °F 48.2 °F 67% 29.57 in 10.0 mi NNW 12.7 mph 19.6 mph N/A   Overcast
5:35 PM 59.0 °F 48.2 °F 67% 29.56 in 10.0 mi NNW 16.1 mph 23.0 mph N/A   Overcast
5:55 PM 59.0 °F 48.2 °F 67% 29.57 in 10.0 mi NNW 10.4 mph 21.9 mph N/A   Overcast
6:15 PM 59.0 °F 48.2 °F 67% 29.58 in 10.0 mi NNW 11.5 mph 20.7 mph N/A   Overcast
6:35 PM 59.0 °F 48.2 °F 67% 29.57 in 10.0 mi North 13.8 mph 19.6 mph N/A   Overcast
6:55 PM 59.0 °F 48.2 °F 67% 29.57 in 10.0 mi NNW 15.0 mph 23.0 mph N/A   Mostly Cloudy
7:15 PM 59.0 °F 48.2 °F 67% 29.57 in 10.0 mi NNW 12.7 mph 20.7 mph N/A   Overcast
7:35 PM 59.0 °F 48.2 °F 67% 29.57 in 10.0 mi North 12.7 mph 23.0 mph N/A   Overcast
7:55 PM 57.2 °F 50.0 °F 77% 29.57 in 10.0 mi NNW 11.5 mph 21.9 mph N/A   Overcast
8:15 PM 57.2 °F 50.0 °F 77% 29.56 in 10.0 mi NNW 13.8 mph 19.6 mph N/A   Overcast
8:35 PM 57.2 °F 50.0 °F 77% 29.56 in 10.0 mi NNW 12.7 mph 20.7 mph N/A   Overcast
8:55 PM 57.2 °F 51.8 °F 82% 29.56 in 10.0 mi NNW 17.3 mph 29.9 mph N/A Rain Light Rain
9:15 PM 57.2 °F 51.8 °F 82% 29.56 in 7.0 mi NNW 11.5 mph 21.9 mph N/A   Light Drizzle
9:35 PM 57.2 °F 51.8 °F 82% 29.56 in 10.0 mi NNW 12.7 mph 20.7 mph N/A   Light Drizzle
9:55 PM 55.4 °F 51.8 °F 88% 29.55 in 7.0 mi NNW 17.3 mph 23.0 mph N/A Rain Light Rain
10:15 PM 55.4 °F 51.8 °F 88% 29.55 in 5.0 mi NNW 13.8 mph 25.3 mph N/A Rain Light Rain
10:35 PM 55.4 °F 51.8 °F 88% 29.55 in 4.0 mi NNW 12.7 mph - N/A Rain Light Rain
10:55 PM 55.4 °F 51.8 °F 88% 29.54 in 2.0 mi NW 13.8 mph 20.7 mph N/A   Light Drizzle
11:35 PM 55.4 °F 51.8 °F 88% 29.53 in 2.0 mi NNW 12.7 mph 21.9 mph N/A Rain Light Rain
11:55 PM 55.4 °F 53.6 °F 94% 29.52 in 3.0 mi NW 15.0 mph 20.7 mph 0.01 in Rain Light Rain